• In Hungary
  • List of Countries
  • For 7 days
  • Water Temperature
  • Satellite Maps
  • Weather Map
  • News
  • Weather Widgets
  • user-avatar
    Login

    Hourly Weather Krutye Gorki

    Today, 19 July, Thursday

    Time Temperature Precipitation Wind Pressure Humidity
    00:00 +25°C° 0 mm 1 mps 747 mmHg 51%
    01:00 +25°C° 0 mm 1 mps 747 mmHg 51%
    02:00 +25°C° 0 mm 1 mps 747 mmHg 52%
    03:00 +24°C° 0 mm 1 mps 747 mmHg 53%
    04:00 +24°C° 0 mm 1 mps 747 mmHg 54%
    05:00 +26°C° 0 mm 1 mps 747 mmHg 51%
    06:00 +27°C° 0 mm 1 mps 748 mmHg 47%
    07:00 +29°C° 0 mm 1 mps 748 mmHg 44%
    08:00 +30°C° 0 mm 1 mps 748 mmHg 39%
    09:00 +32°C° 0 mm 1 mps 748 mmHg 35%
    10:00 +33°C° 0 mm 1 mps 748 mmHg 31%
    11:00 +34°C° 0 mm 1 mps 748 mmHg 29%
    12:00 +34°C° 0 mm 1 mps 748 mmHg 28%
    13:00 +36°C° 0 mm 2 mps 748 mmHg 26%
    14:00 +35°C° 0 mm 1 mps 748 mmHg 27%
    15:00 +35°C° 0 mm 1 mps 748 mmHg 28%
    16:00 +35°C° 0 mm 1 mps 748 mmHg 30%
    17:00 +34°C° 0 mm 1 mps 748 mmHg 31%
    18:00 +34°C° 0 mm 1 mps 748 mmHg 32%
    19:00 +34°C° 0 mm 1 mps 748 mmHg 34%
    20:00 +32°C° 0 mm 2 mps 748 mmHg 36%
    21:00 +31°C° 0 mm 2 mps 748 mmHg 38%
    22:00 +29°C° 0 mm 3 mps 748 mmHg 40%
    23:00 +28°C° 0 mm 3 mps 748 mmHg 44%

    Tomorrow, 20 July, Friday

    Time Temperature Precipitation Wind Pressure Humidity
    00:00 +28°C° 0 mm 3 mps 748 mmHg 47%
    01:00 +27°C° 0 mm 3 mps 748 mmHg 51%
    02:00 +26°C° 0 mm 3 mps 748 mmHg 53%
    03:00 +26°C° 0 mm 3 mps 748 mmHg 54%
    04:00 +26°C° 0 mm 3 mps 748 mmHg 56%
    05:00 +27°C° 0 mm 3 mps 748 mmHg 54%
    06:00 +28°C° 0 mm 3 mps 748 mmHg 53%
    07:00 +28°C° 0 mm 4 mps 748 mmHg 51%
    08:00 +30°C° 0 mm 4 mps 748 mmHg 45%
    09:00 +33°C° 0 mm 4 mps 748 mmHg 40%
    10:00 +35°C° 0 mm 4 mps 749 mmHg 35%
    11:00 +35°C° 0 mm 4 mps 748 mmHg 34%
    12:00 +35°C° 0 mm 3 mps 748 mmHg 33%
    13:00 +35°C° 0 mm 3 mps 748 mmHg 32%
    14:00 +35°C° 0.1 mm 2 mps 748 mmHg 33%
    15:00 +34°C° 0.1 mm 2 mps 748 mmHg 35%
    16:00 +33°C° 0.1 mm 1 mps 748 mmHg 37%
    17:00 +32°C° 0.1 mm 2 mps 748 mmHg 39%
    18:00 +32°C° 0.1 mm 2 mps 748 mmHg 41%
    19:00 +31°C° 0.1 mm 3 mps 748 mmHg 43%
    20:00 +30°C° 0 mm 3 mps 748 mmHg 46%
    21:00 +29°C° 0 mm 3 mps 748 mmHg 49%
    22:00 +28°C° 0 mm 3 mps 748 mmHg 53%
    23:00 +28°C° 0.1 mm 3 mps 748 mmHg 55%

    Day after tomorrow, 21 July, Saturday

    Time Temperature Precipitation Wind Pressure Humidity
    00:00 +28°C° 0.1 mm 4 mps 748 mmHg 57%
    01:00 +27°C° 0.1 mm 4 mps 748 mmHg 60%
    02:00 +27°C° 0 mm 4 mps 748 mmHg 61%
    03:00 +26°C° 0 mm 4 mps 748 mmHg 63%
    04:00 +26°C° 0 mm 4 mps 748 mmHg 65%
    05:00 +26°C° 0 mm 5 mps 748 mmHg 65%
    06:00 +26°C° 0 mm 5 mps 748 mmHg 65%
    07:00 +27°C° 0 mm 5 mps 748 mmHg 64%
    08:00 +28°C° 0 mm 5 mps 748 mmHg 59%
    09:00 +30°C° 0 mm 5 mps 748 mmHg 53%
    10:00 +32°C° 0 mm 5 mps 748 mmHg 47%
    11:00 +33°C° 0 mm 5 mps 748 mmHg 43%
    12:00 +34°C° 0 mm 5 mps 748 mmHg 40%
    13:00 +35°C° 0 mm 5 mps 747 mmHg 36%
    14:00 +35°C° 0 mm 5 mps 747 mmHg 36%
    15:00 +35°C° 0 mm 5 mps 747 mmHg 36%
    16:00 +35°C° 0 mm 5 mps 747 mmHg 35%
    17:00 +34°C° 0 mm 5 mps 747 mmHg 39%
    18:00 +33°C° 0 mm 5 mps 747 mmHg 43%
    19:00 +33°C° 0 mm 5 mps 747 mmHg 47%
    20:00 +30°C° 0 mm 5 mps 747 mmHg 52%
    21:00 +29°C° 0 mm 5 mps 747 mmHg 57%
    22:00 +27°C° 0 mm 5 mps 747 mmHg 63%
    23:00 +27°C° 0 mm 5 mps 747 mmHg 65%

    22 July, Sunday

    Time Temperature Precipitation Wind Pressure Humidity
    00:00 +27°C° 0 mm 5 mps 747 mmHg 67%
    01:00 +26°C° 0 mm 5 mps 747 mmHg 69%
    02:00 +26°C° 0 mm 5 mps 747 mmHg 69%
    03:00 +25°C° 0 mm 5 mps 747 mmHg 70%
    04:00 +24°C° 0 mm 6 mps 747 mmHg 71%
    05:00 +24°C° 0 mm 6 mps 747 mmHg 70%
    06:00 +24°C° 0 mm 7 mps 747 mmHg 70%
    07:00 +24°C° 0 mm 7 mps 747 mmHg 69%
    08:00 +27°C° 0 mm 7 mps 747 mmHg 65%
    09:00 +28°C° 0 mm 7 mps 747 mmHg 61%
    10:00 +29°C° 0 mm 7 mps 747 mmHg 57%
    11:00 +30°C° 0 mm 7 mps 747 mmHg 53%
    12:00 +32°C° 0 mm 7 mps 747 mmHg 50%
    13:00 +33°C° 0 mm 7 mps 747 mmHg 47%
    14:00 +33°C° 0 mm 7 mps 747 mmHg 46%
    15:00 +34°C° 0 mm 7 mps 747 mmHg 45%
    16:00 +34°C° 0 mm 7 mps 747 mmHg 44%
    17:00 +33°C° 0 mm 7 mps 747 mmHg 45%
    18:00 +33°C° 0 mm 6 mps 747 mmHg 46%
    19:00 +33°C° 0 mm 6 mps 747 mmHg 47%
    20:00 +30°C° 0 mm 7 mps 747 mmHg 49%
    21:00 +29°C° 0 mm 7 mps 748 mmHg 51%
    22:00 +28°C° 0 mm 8 mps 748 mmHg 53%
    23:00 +27°C° 0 mm 8 mps 748 mmHg 52%

    23 July, Monday

    Time Temperature Precipitation Wind Pressure Humidity
    00:00 +26°C° 0 mm 8 mps 748 mmHg 51%
    01:00 +26°C° 0 mm 9 mps 748 mmHg 50%
    02:00 +24°C° 0 mm 8 mps 749 mmHg 49%
    03:00 +23°C° 0 mm 8 mps 749 mmHg 48%
    04:00 +22°C° 0 mm 8 mps 749 mmHg 48%
    05:00 +22°C° 0 mm 8 mps 750 mmHg 47%
    06:00 +22°C° 0 mm 8 mps 750 mmHg 47%
    07:00 +22°C° 0 mm 9 mps 750 mmHg 46%
    08:00 +24°C° 0 mm 9 mps 750 mmHg 44%
    09:00 +26°C° 0 mm 9 mps 750 mmHg 42%
    10:00 +27°C° 0 mm 9 mps 751 mmHg 39%
    11:00 +28°C° 0 mm 9 mps 751 mmHg 37%
    12:00 +29°C° 0 mm 8 mps 751 mmHg 34%
    13:00 +32°C° 0 mm 8 mps 750 mmHg 31%
    14:00 +32°C° 0 mm 8 mps 750 mmHg 29%
    15:00 +32°C° 0 mm 8 mps 750 mmHg 28%
    16:00 +33°C° 0 mm 8 mps 750 mmHg 26%
    17:00 +32°C° 0 mm 8 mps 750 mmHg 27%
    18:00 +30°C° 0 mm 7 mps 751 mmHg 28%
    19:00 +29°C° 0 mm 7 mps 751 mmHg 29%
    20:00 +28°C° 0 mm 7 mps 751 mmHg 30%
    21:00 +26°C° 0 mm 7 mps 751 mmHg 32%
    22:00 +24°C° 0 mm 7 mps 752 mmHg 34%
    23:00 +23°C° 0 mm 7 mps 752 mmHg 34%

    24 July, Tuesday

    Time Temperature Precipitation Wind Pressure Humidity
    00:00 +23°C° 0 mm 8 mps 752 mmHg 35%
    01:00 +22°C° 0 mm 8 mps 752 mmHg 35%
    02:00 +22°C° 0 mm 8 mps 752 mmHg 37%
    03:00 +21°C° 0 mm 7 mps 753 mmHg 39%
    04:00 +21°C° 0 mm 7 mps 753 mmHg 40%
    05:00 +21°C° 0 mm 7 mps 753 mmHg 40%
    06:00 +21°C° 0 mm 8 mps 753 mmHg 40%
    07:00 +22°C° 0 mm 8 mps 754 mmHg 39%
    08:00 +23°C° 0 mm 8 mps 754 mmHg 36%
    09:00 +26°C° 0 mm 8 mps 754 mmHg 33%
    10:00 +27°C° 0 mm 8 mps 754 mmHg 30%
    11:00 +28°C° 0 mm 8 mps 754 mmHg 28%
    12:00 +29°C° 0 mm 7 mps 754 mmHg 26%
    13:00 +30°C° 0 mm 7 mps 754 mmHg 24%
    14:00 +30°C° 0 mm 7 mps 754 mmHg 24%
    15:00 +32°C° 0 mm 7 mps 754 mmHg 24%
    16:00 +32°C° 0 mm 7 mps 754 mmHg 23%
    17:00 +30°C° 0 mm 6 mps 754 mmHg 25%
    18:00 +30°C° 0 mm 6 mps 754 mmHg 27%
    19:00 +29°C° 0 mm 5 mps 754 mmHg 29%
    20:00 +27°C° 0 mm 5 mps 754 mmHg 33%
    21:00 +26°C° 0 mm 5 mps 754 mmHg 36%
    22:00 +23°C° 0 mm 5 mps 754 mmHg 40%
    23:00 +23°C° 0 mm 5 mps 755 mmHg 41%
    Show more